Hourly Data Report for October 05, 2017

All times are specified in Local Standard Time (LST). Add 1 hour to adjust for Daylight Saving Time where and when it is observed.

HALL BEACH A
NUNAVUT

68°46'33.000" N
81°14'33.000" W
9.10 m
2402354
71293
YUX

Download Data

Hourly Data (October 2017)
Hourly Data Report for October 5, 2017
Temp Definition
°C
Dew Point Temp Definition
°C
Rel Hum Definition
%
Wind Dir Definition
10's deg

Wind Spd Definition
km/h
Visibility Definition
km
Stn Press Definition
kPa
Hmdx Definition


Wind Chill Definition


Weather Definition


TIME
00:00 Legend Double Dagger -1.9 -6.0 74 13 30 16.1 98.15   -9 LegendNANA
01:00 Legend Double Dagger -1.9 -4.7 81 12 28 16.1 98.22   -9 LegendNANA
02:00 Legend Double Dagger -1.9 -3.8 87 12 35 6.4 98.29   -9 Snow
03:00 Legend Double Dagger -1.9 -4.1 85 12 43 12.9 98.35   -10 LegendNANA
04:00 Legend Double Dagger -2.1 -3.8 88 10 45 8.1 98.40   -11 Snow
05:00 Legend Double Dagger -1.6 -4.1 83 14 28 16.1 98.49   -8 LegendNANA
06:00 Legend Double Dagger -1.8 -6.1 73 15 24 16.1 98.64   -8 LegendNANA
07:00 Legend Double Dagger -1.7 -6.1 72 13 34 16.1 98.74   -9 LegendNANA
08:00 Legend Double Dagger -1.8 -3.5 88 10 35 16.1 98.82   -9 LegendNANA
09:00 Legend Double Dagger -1.5 -3.9 84 11 41 16.1 98.90   -9 LegendNANA
10:00 Legend Double Dagger -1.4 -3.6 85 10 35 12.9 98.95   -9 Snow
11:00 Legend Double Dagger -1.5 -3.5 86 10 32 11.3 99.01   -9 Snow
12:00 Legend Double Dagger -0.9 -3.7 81 11 35 16.1 99.05   -8 LegendNANA
13:00 Legend Double Dagger -0.7 -3.9 79 10 35 16.1 99.12   -8 Snow
14:00 Legend Double Dagger -0.6 -3.3 82 10 34 16.1 99.19   -8 LegendNANA
15:00 Legend Double Dagger -0.6 -3.0 84 10 34 16.1 99.26   -8 LegendNANA
16:00 Legend Double Dagger -0.6 -3.0 84 11 34 16.1 99.33   -8 LegendNANA
17:00 Legend Double Dagger -0.7 -3.0 85 11 35 16.1 99.39   -8 LegendNANA
18:00 Legend Double Dagger -0.7 -3.2 83 10 28 16.1 99.45   -7 LegendNANA
19:00 Legend Double Dagger -1.1 -2.6 89 8 28 4.8 99.48   -8 Snow
20:00 Legend Double Dagger -1.0 -1.7 95 8 24 2.0 99.48   -7 Snow
21:00 Legend Double Dagger -0.9 -1.6 95 5 24 8.1 99.47   -7 Snow
22:00 Legend Double Dagger -0.7 -1.3 96 6 13 8.1 99.45   -5 Snow
23:00 Legend Double Dagger 0.0 -0.6 96 10 30 4.8 99.47   -6 Freezing Rain,Fog

Notes on Data Quality.

Legend

  • E = Estimated
  • M = Missing
  • NA = Not Available
  • ‡ = Partner data that is not subject to review by the National Climate Archives
Date modified: